Latest Coastal Weather Observations for King Island Airport

IDV60701

Issued at 6:21 pm EDT Friday 6 March 2015 (issued every 10 minutes, with the page automatically refreshed every 10 minutes)

About coastal observations | Map of coastal stations | Coastal observations for VIC | Marine services | Other Formats
Station Details ID: 098017 Name: KING ISLAND AIRPORT Lat: -39.88 Lon: 143.88 Height: 37.0 m
Data from the previous 72 hours. | See also: Recent months at King Island Airport
Date/Time
EDT
Temp

°C
Wind Pressure Rain
since 9am
mm
Weather Cloud Vis
km
Sea
Height
m
Swell
Dir
 
Speed
knots
Gust
knots
hPa Trend Height
m
Period
s
Dir
06/06:00pm 15.8 WSW 13 17 1010.3 - 0.8 - Cloudy 10 - - - -
06/05:30pm 15.5 SW 14 17 1010.3 - 0.8 - Partly cloudy 10 - - - -
06/05:00pm 15.2 WSW 12 16 1010.1 - 0.8 - Partly cloudy 10 - - - -
06/04:30pm 15.3 WSW 13 16 1010.2 - 0.8 - Partly cloudy 6 - - - -
06/04:00pm 15.3 SW 14 19 1010.2 - 0.8 - Cloudy 10 - - - -
06/03:30pm 16.1 SW 15 19 1010.2 - 0.8 - Partly cloudy 10 - - - -
06/03:00pm 16.3 SW 17 22 1010.1 - 0.8 - Mostly cloudy 10 - - - -
06/02:30pm 16.1 SSW 18 23 1009.9 - 0.8 - Partly cloudy 10 - - - -
06/02:00pm 16.9 SW 20 26 1009.8 - 0.8 - Partly cloudy 10 - - - -
06/01:30pm 16.4 SSW 21 27 1009.7 - 0.8 - Partly cloudy 10 - - - -
06/01:00pm 15.8 SW 20 29 1009.4 - 0.8 - Partly cloudy 10 - - - -
06/12:51pm 15.6 SW 19 29 1009.3 - 0.8 - Partly cloudy 10 - - - -
06/12:30pm 15.9 SW 23 30 1009.2 - 0.8 - Partly cloudy 8 - - - -
06/12:00pm 16.0 SW 23 31 1009.2 - 0.8 Rain Mostly cloudy 10 - - - -
06/11:32am 14.8 SW 22 32 1009.1 - 0.8 - Partly cloudy 10 - - - -
06/11:31am 14.7 SW 22 31 1009.0 - 0.8 - Partly cloudy 10 - - - -
06/11:30am 14.8 SW 22 30 1009.1 - 0.8 - Partly cloudy 10 - - - -
06/11:16am 14.6 SW 21 29 1008.8 - 0.8 - Partly cloudy 5 - - - -
06/11:06am 14.7 SW 22 29 1008.8 - 0.6 - Partly cloudy 5 - - - -
06/11:01am 15.3 SW 22 32 1008.8 - 0.4 - Partly cloudy 10 - - - -
06/11:00am 15.0 SW 23 32 1008.7 - 0.4 - Partly cloudy 10 - - - -
06/10:59am 15.0 SW 23 32 1008.7 - 0.4 - Partly cloudy 10 - - - -
06/10:47am 15.0 SW 22 29 1008.7 - 0.4 - Partly cloudy 6 - - - -
06/10:36am 15.1 SW 23 31 1008.6 - 0.0 - Partly cloudy 5 - - - -
06/10:35am 15.2 SW 23 33 1008.5 - 0.0 - Partly cloudy 6 - - - -
06/10:30am 15.7 SW 25 33 1008.4 - 0.0 - Partly cloudy 10 - - - -
06/10:01am 15.9 SW 23 33 1008.2 - 0.0 - Partly cloudy 10 - - - -
06/10:00am 16.3 SW 23 32 1008.2 - 0.0 - Partly cloudy 10 - - - -
06/09:37am 15.7 SW 23 33 1008.0 - 0.0 - Partly cloudy 10 - - - -
06/09:30am 15.4 SW 25 33 1008.0 - 0.0 - Partly cloudy 10 - - - -
06/09:29am 15.3 SW 25 33 1008.0 - 0.0 - Partly cloudy 10 - - - -
06/09:19am 15.8 SW 23 33 1007.9 - 0.0 - Partly cloudy 10 - - - -
06/09:09am 15.3 SW 25 39 1007.9 - 0.0 - Partly cloudy 10 - - - -
06/09:04am 15.2 SW 23 33 1007.7 - 0.0 - Partly cloudy 10 - - - -
06/09:00am 15.4 SW 25 33 1007.6 - 1.8 Drizzle Cloudy 10 - - - -
06/08:32am 14.9 SW 24 36 1007.2 - 1.8 - Partly cloudy 9 - - - -
06/08:30am 14.9 WSW 24 36 1007.1 - 1.8 - Partly cloudy 9 - - - -
06/08:17am 14.8 WSW 24 38 1006.9 - 1.8 - Partly cloudy 10 - - - -
06/08:07am 14.7 WSW 26 36 1006.9 - 1.8 - Partly cloudy 7 - - - -
06/08:01am 14.8 WSW 25 36 1006.9 - 1.6 - Partly cloudy 7 - - - -
06/08:00am 14.8 WSW 25 34 1006.8 - 1.6 - Partly cloudy 8 - - - -
06/07:32am 15.2 WSW 27 38 1006.5 - 1.6 - Partly cloudy 10 - - - -
06/07:30am 15.2 WSW 26 34 1006.5 - 1.6 - Partly cloudy 10 - - - -
06/07:04am 15.3 WSW 24 34 1006.1 - 1.6 - Partly cloudy 10 - - - -
06/07:00am 15.2 WSW 25 34 1006.2 - 1.6 - Partly cloudy 10 - - - -
06/06:56am 14.9 WSW 24 36 1006.1 - 1.6 - Partly cloudy 10 - - - -
06/06:38am 14.8 WSW 27 40 1006.0 - 1.6 - Partly cloudy 7 - - - -
06/06:31am 14.7 WSW 27 37 1006.0 - 1.6 - Partly cloudy 8 - - - -
06/06:30am 14.8 WSW 27 36 1006.0 - 1.6 - Partly cloudy 9 - - - -
06/06:01am 14.9 WSW 27 37 1005.9 - 1.6 - Partly cloudy 10 - - - -
06/06:00am 14.9 WSW 28 37 1006.0 - 1.6 Rain Cloudy 10 - - - -
06/05:38am 15.0 WSW 27 38 1006.3 - 1.6 - Partly cloudy 10 - - - -
06/05:33am 14.9 WSW 26 35 1006.3 - 1.6 - Partly cloudy 10 - - - -
06/05:30am 14.8 WSW 26 35 1006.4 - 1.6 - Partly cloudy 10 - - - -
06/05:02am 14.4 WSW 25 36 1006.5 - 1.4 - Partly cloudy 5 - - - -
06/05:00am 14.4 WSW 25 36 1006.5 - 1.2 - Partly cloudy - - - - -
06/04:30am 14.4 WSW 25 37 1006.6 - 1.2 - Partly cloudy - - - - -
06/04:00am 14.2 WSW 23 34 1007.1 - 0.4 - Partly cloudy - - - - -
06/03:55am 14.3 WSW 26 38 1007.0 - 0.4 - Partly cloudy - - - - -
06/03:30am 14.1 WSW 27 39 1007.5 - 0.2 - Partly cloudy 5 - - - -
06/03:00am 14.2 W 26 36 1007.6 - 0.0 Rain Cloudy 4 - - - -
06/02:54am 14.4 WSW 26 38 1007.6 - 0.0 - Partly cloudy 5 - - - -
06/02:30am 14.7 W 27 41 1007.9 - 0.0 - Partly cloudy 6 - - - -
06/02:00am 15.1 W 26 41 1008.3 - 0.0 - Cloudy 9 - - - -
06/01:30am 15.2 W 27 38 1008.4 - 0.0 - Partly cloudy 10 - - - -
06/01:00am 15.1 W 25 36 1008.7 - 0.0 - Partly cloudy 10 - - - -
06/12:30am 14.9 W 24 35 1009.3 - 0.0 - Partly cloudy 10 - - - -
06/12:02am 14.9 W 25 35 1009.6 - 0.0 - Partly cloudy 10 - - - -
06/12:00am 14.9 W 26 35 1009.6 - 0.0 - Cloudy 10 - - - -
 
Date/Time
EDT
Temp

°C
Wind Pressure Rain
since 9am
mm
Weather Cloud Vis
km
Sea
Height
m
Swell
Dir
 
Speed
knots
Gust
knots
hPa Trend Height
m
Period
s
Dir
05/11:30pm 14.7 W 28 39 1009.9 - 0.0 - Partly cloudy 10 - - - -
05/11:00pm 14.7 W 25 36 1010.3 - 0.0 - Partly cloudy 10 - - - -
05/10:35pm 14.8 W 23 33 1010.7 - 0.0 - Partly cloudy 10 - - - -
05/10:30pm 14.7 W 23 32 1010.8 - 0.0 - Partly cloudy 10 - - - -
05/10:07pm 14.6 W 24 34 1011.1 - 0.0 - Partly cloudy 10 - - - -
05/10:00pm 14.6 W 24 33 1011.2 - 0.0 - Partly cloudy 10 - - - -
05/09:37pm 14.5 W 22 32 1011.5 - 0.0 - Partly cloudy 10 - - - -
05/09:30pm 14.5 W 23 32 1011.5 - 0.0 - Partly cloudy 10 - - - -
05/09:17pm 14.4 W 23 33 1011.6 - 0.0 - Partly cloudy 10 - - - -
05/09:00pm 14.4 W 23 31 1011.6 - 0.0 Rain Mostly cloudy 10 - - - -
05/08:30pm 14.4 W 22 32 1011.6 - 0.0 - Partly cloudy 10 - - - -
05/08:14pm 14.4 W 22 32 1011.6 - 0.0 - Partly cloudy 10 - - - -
05/08:00pm 14.4 W 21 30 1011.8 - 0.0 - Partly cloudy 10 - - - -
05/07:30pm 14.2 W 22 33 1012.2 - 0.0 - Partly cloudy 10 - - - -
05/07:21pm 14.5 W 19 29 1012.3 - 0.0 - Partly cloudy 10 - - - -
05/07:00pm 14.7 W 21 29 1012.4 - 0.0 - Partly cloudy 10 - - - -
05/06:48pm 14.7 W 21 31 1012.6 - 0.0 - Partly cloudy 10 - - - -
05/06:30pm 14.6 W 22 30 1012.7 - 0.0 - Partly cloudy 10 - - - -
05/06:00pm 14.7 WSW 23 33 1013.1 - 0.0 - Cloudy 10 - - - -
05/05:41pm 14.7 W 21 31 1013.2 - 0.0 - Partly cloudy 10 - - - -
05/05:30pm 15.0 W 19 28 1013.3 - 0.0 - Partly cloudy 10 - - - -
05/05:00pm 14.6 W 20 30 1013.7 - 0.0 - Partly cloudy 10 - - - -
05/04:37pm 15.3 WSW 20 30 1014.0 - 0.0 - Partly cloudy 10 - - - -
05/04:30pm 15.6 WSW 19 27 1014.1 - 0.0 - Partly cloudy 10 - - - -
05/04:00pm 15.3 W 20 27 1014.6 - 0.0 - Partly cloudy 10 - - - -
05/03:31pm 14.7 WSW 21 31 1014.9 - 0.0 - Partly cloudy 10 - - - -
05/03:30pm 14.8 WSW 20 27 1014.9 - 0.0 - Partly cloudy 10 - - - -
05/03:00pm 15.3 W 20 30 1015.1 - 0.0 - Cloudy 10 - - - -
05/02:30pm 15.2 WSW 20 30 1015.3 - 0.0 - Partly cloudy 10 - - - -
05/02:23pm 15.4 WSW 20 30 1015.3 - 0.0 - Partly cloudy 10 - - - -
05/02:00pm 16.1 WSW 23 31 1015.4 - 0.0 - Partly cloudy 10 - - - -
05/01:43pm 14.5 WSW 18 28 1015.6 - 0.0 - Partly cloudy 10 - - - -
05/01:30pm 15.1 WSW 19 26 1015.6 - 0.0 - Partly cloudy 10 - - - -
05/01:00pm 15.1 SW 21 28 1015.7 - 0.0 - Partly cloudy 10 - - - -
05/12:30pm 15.1 WSW 21 28 1016.1 - 0.0 - Partly cloudy 10 - - - -
05/12:00pm 14.5 SW 18 26 1016.2 - 0.0 - Cloudy 10 - - - -
05/11:38am 14.2 SW 19 29 1016.2 - 0.0 - Partly cloudy 10 - - - -
05/11:30am 14.8 SW 23 32 1016.1 - 0.0 - Partly cloudy 10 - - - -
05/11:21am 14.9 SW 22 32 1016.2 - 0.0 - Partly cloudy 10 - - - -
05/11:00am 14.6 SW 22 30 1015.9 - 0.0 - Partly cloudy 10 - - - -
05/10:30am 14.0 SW 21 33 1015.9 - 0.0 - Partly cloudy 10 - - - -
05/10:00am 14.1 SW 21 31 1015.6 - 0.0 - Partly cloudy 10 - - - -
05/09:34am 13.0 SW 22 32 1015.5 - 0.0 - Partly cloudy 10 - - - -
05/09:30am 12.6 SW 23 32 1015.5 - 0.0 - Partly cloudy 10 - - - -
05/09:00am 12.4 SW 23 33 1015.3 - 5.6 - Cloudy 10 - - - -
05/08:30am 12.4 SW 22 33 1014.7 - 5.6 - Partly cloudy 10 - - - -
05/08:13am 11.6 SSW 22 32 1014.4 - 5.6 - Partly cloudy 10 - - - -
05/08:04am 11.5 SW 23 32 1014.2 - 5.6 - Partly cloudy 10 - - - -
05/08:00am 11.9 WSW 23 32 1013.9 - 5.6 - Partly cloudy 10 - - - -
05/07:32am 11.4 SW 21 31 1013.3 - 5.6 - Partly cloudy 10 - - - -
05/07:30am 11.1 SW 22 31 1013.2 - 5.6 - Partly cloudy 10 - - - -
05/07:02am 10.9 SW 19 31 1012.7 - 5.4 - Partly cloudy 10 - - - -
05/07:00am 10.7 SW 18 22 1012.7 - 5.4 - Partly cloudy 10 - - - -
05/06:57am 10.2 SW 18 23 1012.6 - 5.4 - Partly cloudy 10 - - - -
05/06:47am 9.7 SW 23 33 1012.5 - 5.4 - Partly cloudy 5 - - - -
05/06:42am 10.4 SW 23 33 1012.9 - 5.2 - Partly cloudy 8 - - - -
05/06:30am 12.0 SW 22 30 1011.8 - 4.8 - Partly cloudy 10 - - - -
05/06:21am 11.9 SW 23 33 1011.6 - 4.8 - Partly cloudy 10 - - - -
05/06:00am 12.0 SW 23 32 1011.2 - 4.8 Recent precip. Mostly clear 10 - - - -
05/05:30am 11.9 SW 27 38 1010.6 - 4.8 - Partly cloudy 10 - - - -
05/05:00am 10.0 SW 27 43 1010.4 - 4.6 - Partly cloudy 9 - - - -
05/04:30am 12.1 WSW 29 40 1009.7 - 4.6 - Partly cloudy 10 - - - -
05/04:01am 11.3 WSW 27 38 1009.3 - 4.4 - - 10 - - - -
05/04:00am 11.4 SW 27 35 1009.3 - 4.4 - Partly cloudy 10 - - - -
05/03:30am 11.6 WSW 27 39 1008.8 - 4.0 - Partly cloudy 10 - - - -
05/03:00am 11.6 WSW 30 41 1008.6 - 4.0 Showers Cloudy 10 - - - -
05/02:30am 11.9 WSW 30 44 1007.9 - 4.0 - Partly cloudy 10 - - - -
05/02:00am 12.7 WSW 28 44 1007.2 - 3.8 - Partly cloudy 10 - - - -
05/01:30am 11.3 WSW 26 39 1007.2 - 3.6 - Partly cloudy 8 - - - -
05/01:00am 13.2 WSW 27 40 1006.3 - 3.4 - Partly cloudy 10 - - - -
05/12:30am 13.8 WSW 32 47 1006.0 - 3.4 - Partly cloudy 10 - - - -
05/12:00am 15.1 W 27 41 1005.6 - 3.4 - Partly cloudy 10 - - - -
 
Date/Time
EDT
Temp

°C
Wind Pressure Rain
since 9am
mm
Weather Cloud Vis
km
Sea
Height
m
Swell
Dir
 
Speed
knots
Gust
knots
hPa Trend Height
m
Period
s
Dir
04/11:30pm 14.8 W 23 34 1005.6 - 3.4 - Partly cloudy 10 - - - -
04/11:00pm 14.2 W 25 36 1006.1 - 3.4 - Partly cloudy 10 - - - -
04/10:46pm 14.6 W 19 30 1005.9 - 3.2 - Partly cloudy 10 - - - -
04/10:45pm 14.5 W 19 29 1005.8 - 3.2 - Partly cloudy 10 - - - -
04/10:41pm 14.4 W 21 29 1005.9 - 3.2 - Partly cloudy 10 - - - -
04/10:31pm 14.4 W 20 28 1006.0 - 3.2 - Partly cloudy 5 - - - -
04/10:30pm 14.6 W 19 28 1006.0 - 3.2 - Partly cloudy 5 - - - -
04/10:00pm 14.5 W 28 40 1006.1 - 2.6 - Partly cloudy 2 - - - -
04/09:55pm 16.0 WNW 29 39 1005.8 - 0.6 - Partly cloudy 5 - - - -
04/09:30pm 17.3 WNW 29 40 1005.6 - 0.2 - Partly cloudy 10 - - - -
04/09:00pm 17.2 WNW 27 37 1005.8 - 0.2 - Partly cloudy 10 - - - -
04/08:36pm 17.2 WNW 28 38 1005.9 - 0.2 - Partly cloudy 10 - - - -
04/08:30pm 17.2 WNW 28 37 1006.0 - 0.2 - Partly cloudy 10 - - - -
04/08:08pm 17.1 WNW 29 39 1006.3 - 0.2 - Partly cloudy 10 - - - -
04/08:00pm 17.2 WNW 27 36 1006.3 - 0.2 - Partly cloudy 10 - - - -
04/07:30pm 17.4 WNW 26 36 1006.6 - 0.2 - Partly cloudy 10 - - - -
04/07:23pm 17.4 WNW 26 36 1006.6 - 0.2 - Partly cloudy 10 - - - -
04/07:00pm 17.9 WNW 25 34 1006.5 - 0.2 - Partly cloudy 10 - - - -
04/06:30pm 18.4 WNW 25 37 1007.1 - 0.2 - Partly cloudy 10 - - - -
04/06:23pm 18.0 WNW 27 37 1007.2 - 0.2 - Partly cloudy 10 - - - -
04/06:00pm 17.5 NW 26 33 1007.3 - 0.2 - Mostly clear 10 - - - -
04/05:30pm 18.1 WNW 26 33 1007.9 - 0.2 - Partly cloudy 10 - - - -
04/05:00pm 18.7 WNW 23 30 1008.1 - 0.2 - Partly cloudy 10 - - - -
04/04:30pm 19.3 WNW 25 32 1008.6 - 0.2 - Partly cloudy 10 - - - -
04/04:00pm 18.7 WNW 25 33 1009.0 - 0.2 - Partly cloudy 10 - - - -
04/03:50pm 18.9 WNW 22 34 1009.1 - 0.2 - Partly cloudy 10 - - - -
04/03:37pm 17.1 WNW 22 30 1009.3 - 0.2 - Partly cloudy 10 - - - -
04/03:30pm 16.3 WNW 21 29 1009.4 - 0.2 - Partly cloudy 7 - - - -
04/03:21pm 16.6 WNW 22 29 1009.5 - 0.2 - Partly cloudy 5 - - - -
04/03:00pm 19.4 WNW 24 30 1009.5 - 0.2 - Mostly cloudy 10 - - - -
04/02:30pm 19.0 WNW 21 29 1009.8 - 0.2 - Partly cloudy 10 - - - -
04/02:00pm 18.7 WNW 26 31 1010.1 - 0.2 - Partly cloudy 10 - - - -
04/01:30pm 19.4 WNW 22 28 1010.3 - 0.2 - Partly cloudy 10 - - - -
04/01:14pm 17.6 WNW 23 33 1010.6 - 0.2 - Partly cloudy 9 - - - -
04/01:00pm 20.1 WNW 20 27 1010.7 - 0.2 - Partly cloudy 10 - - - -
04/12:30pm 19.0 WNW 22 29 1011.3 - 0.2 - Partly cloudy 10 - - - -
04/12:00pm 16.9 WNW 21 30 1011.5 - 0.2 Rain Cloudy 10 - - - -
04/11:46am 17.0 W 15 25 1011.7 - 0.2 - Partly cloudy 10 - - - -
04/11:31am 15.2 W 22 32 1012.1 - 0.2 - Partly cloudy 3 - - - -
04/11:30am 15.2 WNW 23 32 1012.2 - 0.2 - Partly cloudy 3 - - - -
04/11:26am 15.4 WNW 22 32 1012.1 - 0.0 - Partly cloudy 5 - - - -
04/11:25am 15.4 WNW 23 32 1012.1 - 0.0 - Partly cloudy 5 - - - -
04/11:24am 15.6 WNW 22 32 1012.1 - 0.0 - Partly cloudy 6 - - - -
04/11:00am 18.5 WNW 20 26 1011.9 - 0.0 - Cloudy 10 - - - -
04/10:30am 18.4 WNW 20 26 1012.1 - 0.0 - Partly cloudy 10 - - - -
04/10:00am 15.9 WNW 18 22 1012.1 - 0.0 - Partly cloudy 10 - - - -
04/09:32am 17.0 WNW 17 27 1012.4 - 0.0 - Cloudy 10 - - - -
04/09:30am 17.3 WNW 17 21 1012.4 - 0.0 - Partly cloudy 10 - - - -
04/09:00am 16.3 WNW 17 25 1012.5 - 0.2 Recent precip. Mostly cloudy 10 - - - -
04/08:52am 15.5 WNW 15 25 1012.6 - 0.2 - Partly cloudy 10 - - - -
04/08:48am 15.2 WNW 14 18 1012.6 - 0.2 - Partly cloudy 10 - - - -
04/08:39am 14.7 WNW 15 25 1012.6 - 0.2 - Partly cloudy 6 - - - -
04/08:31am 14.6 W 19 26 1012.6 - 0.2 - Partly cloudy 5 - - - -
04/08:30am 14.8 W 19 26 1012.6 - 0.0 - Partly cloudy 6 - - - -
04/08:00am 16.3 WNW 19 24 1012.0 - 0.0 - Cloudy 10 - - - -
04/07:30am 15.8 WNW 15 20 1011.7 - 0.0 - Partly cloudy 10 - - - -
04/07:06am 16.1 WNW 19 29 1011.8 - 0.0 - Partly cloudy 10 - - - -
04/07:00am 16.1 WNW 18 25 1011.8 - 0.0 - Cloudy 10 - - - -
04/06:30am 15.3 WNW 16 21 1011.9 - 0.0 - Partly cloudy 10 - - - -
04/06:00am 14.6 W 18 26 1012.2 - 0.0 Drizzle Cloudy 10 - - - -
04/05:30am 15.7 W 18 29 1012.3 - 0.0 - Partly cloudy 10 - - - -
04/05:25am 15.7 W 19 29 1012.4 - 0.0 - Partly cloudy 10 - - - -
04/05:00am 16.2 W 19 26 1012.3 - 0.0 - Partly cloudy 10 - - - -
04/04:30am 15.9 WNW 17 23 1012.3 - 0.0 - Partly cloudy 10 - - - -
04/04:05am 15.9 W 18 28 1012.5 - 0.0 - Partly cloudy 10 - - - -
04/04:00am 16.0 W 18 26 1012.6 - 0.0 - Partly cloudy 10 - - - -
04/03:30am 16.5 WNW 17 22 1012.9 - 0.0 - Partly cloudy 10 - - - -
04/03:00am 16.3 WNW 17 26 1013.2 - 0.0 - Cloudy 10 - - - -
04/02:30am 16.2 W 14 20 1013.6 - 0.0 - Partly cloudy 10 - - - -
04/02:00am 16.3 WNW 16 21 1013.9 - 0.0 - Partly cloudy 10 - - - -
04/01:30am 16.4 WNW 16 20 1014.2 - 0.0 - Cloudy 10 - - - -
04/01:00am 16.1 WNW 15 21 1014.3 - 0.0 - Cloudy 10 - - - -
04/12:30am 15.8 W 14 19 1014.8 - 0.0 - Partly cloudy 10 - - - -
04/12:00am 15.6 W 15 20 1015.2 - 0.0 - Mostly cloudy 10 - - - -
 
Date/Time
EDT
Temp

°C
Wind Pressure Rain
since 9am
mm
Weather Cloud Vis
km
Sea
Height
m
Swell
Dir
 
Speed
knots
Gust
knots
hPa Trend Height
m
Period
s
Dir
03/11:30pm 15.8 W 14 20 1015.5 - 0.0 - Cloudy 10 - - - -
03/11:00pm 15.8 W 13 19 1015.8 - 0.0 - Cloudy 10 - - - -
03/10:30pm 15.8 W 14 20 1016.0 - 0.0 - Cloudy 10 - - - -
03/10:00pm 15.6 W 15 20 1016.1 - 0.0 - Cloudy 10 - - - -
03/09:30pm 15.7 W 16 22 1016.1 - 0.0 - Partly cloudy 10 - - - -
03/09:00pm 15.9 W 14 19 1015.8 - 0.0 - Cloudy 10 - - - -
03/08:30pm 16.0 W 13 19 1015.6 - 0.0 - Cloudy 10 - - - -
03/08:00pm 15.9 W 12 17 1015.5 - 0.0 - Cloudy 10 - - - -
03/07:30pm 15.6 W 13 17 1015.5 - 0.0 - Partly cloudy 10 - - - -
03/07:00pm 16.5 W 15 25 1015.4 - 0.0 - - 10 - - - -
03/06:58pm 16.5 W 15 25 1015.4 - 0.0 - - 10 - - - -
03/06:30pm 17.0 W 15 23 1015.5 - 0.0 - - 10 - - - -

Other Formats:

Comma delimited format used in spreadsheet applications
http://www.bom.gov.au/fwo/IDV60701/IDV60701.94850.axf

JavaScript Object Notation format (JSON) in row-major order
http://www.bom.gov.au/fwo/IDV60701/IDV60701.94850.json